Location: Albuquerque Trailhead
(34.7934°N, 106.3736°W)
Time: 00:34:37
(UTC+00:00)

SL-16 R/B - Pass Details

Date: 20 June 2021
Orbit: 842 x 847 km, 71.0° (Epoch: 27 July)

Event Time Altitude Azimuth Distance (km) Brightness Sun altitude
Exits shadow 05:25:22 15° 71° (ENE) 2,139 4.2 -27.0°
Drops below altitude 10° 05:26:52 10° 57° (ENE) 2,466 4.7 -27.1°
Sets 05:30:01 0° 40° (NE) 3,405 5.7 -27.4°
